Regional Weather Roundup
Issued by NWS Newport/Morehead, NC

Current Version | Previous Version | Text Only | Print | Product List | Glossary On
Versions: 1 2 3 4 5 6 7 8 9 10 11 12 13 14 15 16 17 18 19 20 21 22 23 24 25 26 27 28 29 30 31 32 33 34 35 36 37 38 39 40 41 42 43 44 45 46 47 48 49 50
000
ASUS42 KMHX 190922
RWRMHX
WEATHER ROUNDUP FOR EASTERN NORTH CAROLINA
NATIONAL WEATHER SERVICE NEWPORT/MOREHEAD CITY NC
500 AM EDT SAT APR 19 2014

NOTE: "FAIR" INDICATES FEW OR NO CLOUDS BELOW 12,000 FEET
WITH NO SIGNIFICANT WEATHER AND/OR OBSTRUCTIONS TO VISIBILITY

NCZ015>017-031-032-045>047-102-103-191000-
NORTH COAST

CITY           SKY/WX    TMP DP  RH WIND       PRES   REMARKS
EDENTON        DRIZZLE   46  45  96 N10       30.17F
ELIZABETH CITY LGT RAIN  47  44  90 N13       30.19S
KITTY HAWK     CLOUDY    47  46  93 N9        30.15F
MANTEO         CLOUDY    48  46  93 NE20      30.15F

$$

NCZ045>047-081-094-103-104-191000-
CENTRAL COAST

CITY           SKY/WX    TMP DP  RH WIND       PRES   REMARKS
FRISCO         CLOUDY    51  51 100 NE14G21   30.11F
SWANQUARTER      N/A     52 N/A N/A NE9G15    30.09S

$$

NCZ095-097-098-100-101-191000-
SOUTHERN COAST

CITY           SKY/WX    TMP DP  RH WIND       PRES   REMARKS
BEAUFORT       RAIN      54  53  97 NE15      30.06F FOG
CEDAR ISLAND     N/A     55 N/A N/A NE22G30   30.12F
JACKSONVILLE   RAIN      49  49 100 N14       30.07F
NEWPORT          N/A     52  52 100 VRB7        N/A
PINEY ISLAND   RAIN      57  56  96 N17G25    30.08F FOG
WILMINGTON     HVY RAIN  53  51  93 NW10      30.02S FOG


$$

NCZ011>013-027>030-043-044-078>080-089-090>093-098-191000-
COASTAL PLAIN

CITY           SKY/WX    TMP DP  RH WIND       PRES   REMARKS
AHOSKIE        CLOUDY    46  43  90 N6        30.20F
CLINTON        RAIN      49  49 100 NE7       30.09F
ELIZABETHTOWN  LGT RAIN  51  51 100 N6        30.06F
GOLDSBORO      LGT RAIN  47  47  98 NE8       30.10F
GREENVILLE     RAIN      46  45  93 NE12      30.16F
HAVELOCK       RAIN      52  50  93 N16       30.09F FOG
KENANSVILLE    LGT RAIN  47  46  96 NE8       30.10F
KINSTON        LGT RAIN  47  46  95 N12       30.13F
NEW BERN       RAIN      51  48  89 N10       30.12F FOG
RICHLANDS      CLOUDY    48 N/A N/A N17       30.07F
ROANOKE RAPIDS NOT AVBL
ROCKY MOUNT    LGT RAIN  47  44  90 N13       30.16F
WASHINGTON     CLOUDY    46  42  85 NE10      30.14F
WHITEVILLE     LGT RAIN  55  52  92 NE15G21   30.01F

$$

AMZ130-135-150-152-154-156-158-170-250-252-270-ANZ085-086-088-633-658-670-191000-
MARINE OBSERVATIONS

STATION/POSITION TIME  TEMP    WIND        PRES    WAVE   SWELL
                       AIR SEA DIR/SP/G            HT/PER HT/PER
                 (UTC) (F)     (DEG/KT/KT) (MB)    (FT/S) (FT/S)
CHESAPEAKE LIGHT 0900   45      20/ 14/ 15 1023.8
BUOY 44014       0900   50 49   10/ 14/ 16 1021.8    6/11   5/11
DUCK             0900   47 50   10/ 14/ 18 1020.9
2E DUCK          0900      47                N/A     5/11   2/11
OREGON INLET     0900   48 52  360/ 15/ 21 1020.5
BUOY 44095       0900      48                N/A     6/10   3/11
HATTERAS CG      0900   53 58   30/ 14/ 19 1019.3
DIAMOND BUOY     NOT AVBL
CAPE LOOKOUT     0900   55      10/ 15/ 19 1017.2
BEAUFORT LAB     0900   54 58   20/ 12/ 18 1017.1
30 SE NEW RIVER  0900   58 63   40/ 21/ 27 1016.5    8/ 6   2/10
5 SE WRIGHTSVILL 0900   56 59   50/ 25/ 29 1014.8
FRYING PAN BUOY  0900   68 65  160/ 10/ 17 1013.8    9/ 6   8/ 6
BUOY 41001       NOT AVBL
BUOY 41002       NOT AVBL
BUOY 41004       NOT AVBL

$$



USA.gov is the U.S. government's official web portal to all federal, state and local government web resources and services.